Regional Weather Roundup
Issued by NWS

Home | Current Version | Previous Version | Text Only | Print | Product List | Glossary On
Versions: 1 2 3 4 5 6 7 8 9 10 11 12 13 14 15 16 17 18 19 20 21 22 23 24 25 26 27 28 29 30 31 32 33 34 35 36 37 38 39 40 41 42 43 44 45 46 47 48 49 50
000
ASUS44 KBMX 250910
RWRAL

ALABAMA REGIONAL WEATHER ROUNDUP
NATIONAL WEATHER SERVICE BIRMINGHAM AL
400 AM CDT TUE APR 25 2017

NOTE: "FAIR" INDICATES FEW OR NO CLOUDS BELOW 12,000 FEET
WITH NO SIGNIFICANT WEATHER AND/OR OBSTRUCTIONS TO VISIBILITY.

THE REMARK "TC" DENOTES TEMPERATURE IN DEGREES CELSIUS.

ALZ001>011-014-016>018-020-251000-
NORTH ALABAMA

CITY           SKY/WX    TMP DP  RH WIND       PRES   REMARKS
MUSCLE SHOALS  CLEAR     50  47  89 W3        29.79R
HUNTSVILLE     FOG       51  51 100 CALM      29.78R VSB 3/4
DECATUR        CLEAR     50  50 100 CALM      29.78S
HALEYVILLE     FOG       48  46  93 CALM      29.81R VSB 1/2
GADSDEN        CLEAR     49  48  97 CALM      29.78R
$$

ALZ012-013-022-023-030>036-040>044-251000-
WEST CENTRAL ALABAMA

CITY           SKY/WX    TMP DP  RH WIND       PRES   REMARKS
TUSCALOOSA     CLEAR     50  50 100 CALM      29.79S
$$

ALZ015-024>027-033>036-040>044-251000-
CENTRAL ALABAMA

CITY           SKY/WX    TMP DP  RH WIND       PRES   REMARKS
BIRMINGHAM     CLEAR     54  52  93 CALM      29.80S
MONTGOMERY     CLEAR     54  50  86 W3        29.78S
SHELBY CO ARPT PTCLDY    54  53  97 CALM      29.78S
MAXWELL AFB    CLEAR     54  53  97 CALM      29.77S
GREENVILLE     FAIR      53  49  86 CALM      29.78R
$$

ALZ019-021-028-029-037-038-045>048-251000-
EAST CENTRAL ALABAMA

CITY           SKY/WX    TMP DP  RH WIND       PRES   REMARKS
ANNISTON       CLEAR     51  51 100 SW3       29.77S
ALEXANDER CITY CLEAR     49  48  95 CALM      29.77R
AUBURN         CLEAR     55  53  93 NW5       29.78R
$$

ALZ051>064-251000-
SOUTHWEST ALABAMA

CITY           SKY/WX    TMP DP  RH WIND       PRES   REMARKS
MOBILE         CLEAR     53  51  93 CALM      29.80S
BROOKLEY FIELD PTCLDY    55  55 100 CALM      29.80F
EVERGREEN      CLEAR     48  47  96 CALM      29.80S
$$

ALZ049-050-065>069-251000-
SOUTHEAST ALABAMA

CITY           SKY/WX    TMP DP  RH WIND       PRES   REMARKS
DOTHAN         CLEAR     57  55  93 NW8       29.80S
OZARK          CLEAR     53  50  90 SW6       29.77F
TROY           CLEAR     51  51 100 CALM      29.79S
EUFAULA        FAIR      57  54  89 CALM      29.76R
$$



USA.gov is the U.S. government's official web portal to all federal, state and local government web resources and services.